カタログに戻る

STARLINK-37942

運用中通信VLEO
NORAD 100280·PAYLOAD·🇺🇸 United States

打ち上げ Aug 11, 2026 から Cape Canaveral Space Force Station

Loading…

次のパス (今後24時間)

TLE

経年Source: Space-Track

元期: Sep 13, 2026, 11:53 UTC

1 A0280U 26183J   26256.49533694 -.00498621  00000-0 -35909-2 0  9994
2 A0280  53.1588 291.9032 0002011  55.3419 304.7790 15.74277222  5205

AllMySatでSTARLINK-37942をリアルタイム追跡

Download on the App Store